Weather History for KSPG - July, 2014

Change the Weather History Date:

Sunday, July 6, 2014

  Actual Average Record
Temperature  
Mean Temperature 82 °F -  
Max Temperature 86 °F 90 °F 96 °F (1991)
Min Temperature 78 °F 76 °F 70 °F (1986)
Cooling Degree Days 17    
Growing Degree Days 32 (Base 50)    
Moisture  
Dew Point 74 °F    
Average Humidity 80    
Maximum Humidity 90    
Minimum Humidity 65    
Precipitation  
Precipitation 0.00 in - - ()
Sea Level Pressure  
Sea Level Pressure 30.05 in    
Wind  
Wind Speed 10 mph (South)    
Max Wind Speed 24 mph    
Max Gust Speed 30 mph    
Visibility 10 miles    
Events Rain , Thunderstorm    
Averages and records for this station are not official NWS values.
T = Trace of Precipitation, MM = Missing Value Source: NWS Daily Summary

Daily Weather History Graph

Daily Weather History Graph

Search for Another Location

Airport or City:

Trip Planner

Search our weather history database for the weather conditions in past years. The results will help you decide how hot, cold, wet, or windy it might be!

Date:

Astronomy

Jul. 06, 2014 Rise Set
Actual Time 6:40 AM EDT 8:30 PM EDT
Civil Twilight 6:13 AM EDT 8:56 PM EDT
Nautical Twilight 5:41 AM EDT 9:28 PM EDT
Astronomical Twilight 5:08 AM EDT 10:02 PM EDT
Moon 2:46 PM EDT (7/6) 1:37 AM EDT (7/6)
Length of Visible Light 14h 42m
Length of Day
13h 49m
Waxing Gibbous, 62% of the Moon is Illuminated
Jul 6
Waxing Gibbous
Jul 12
Full
Jul 18
Last Quarter
Jul 26
New
Aug 3
First Quarter

Hourly Weather History & Observations

Time (EDT) Temp. Heat Index Dew Point Humidity Pressure Visibility Wind Dir Wind Speed Gust Speed Precip Events Conditions
12:53 AM 79.0 °F - 75.0 °F 88% 30.08 in 10.0 mi SSE 11.5 mph - N/A   Clear
1:53 AM 78.1 °F - 73.9 °F 87% 30.05 in 10.0 mi South 8.1 mph - N/A   Clear
2:53 AM 79.0 °F - 75.0 °F 88% 30.03 in 10.0 mi South 8.1 mph - N/A   Clear
3:53 AM 78.1 °F - 75.0 °F 90% 30.03 in 10.0 mi South 5.8 mph - N/A   Clear
4:53 AM 80.1 °F 85.1 °F 75.0 °F 85% 30.03 in 10.0 mi SE 8.1 mph - N/A   Clear
5:44 AM 79.0 °F - 75.0 °F 88% 30.04 in 10.0 mi SE 8.1 mph - N/A   Partly Cloudy
5:53 AM 78.1 °F - 75.0 °F 90% 30.04 in 10.0 mi SE 6.9 mph - N/A   Partly Cloudy
6:53 AM 79.0 °F - 73.9 °F 84% 30.04 in 10.0 mi SSE 8.1 mph - N/A   Clear
7:31 AM 79.0 °F - 75.0 °F 88% 30.05 in 10.0 mi SE 6.9 mph - N/A   Partly Cloudy
7:53 AM 79.0 °F - 75.9 °F 90% 30.06 in 10.0 mi SE 9.2 mph - N/A   Partly Cloudy
8:53 AM 80.1 °F 85.4 °F 75.9 °F 87% 30.08 in 10.0 mi SSE 8.1 mph - N/A   Partly Cloudy
9:53 AM 82.0 °F 89.4 °F 75.9 °F 82% 30.09 in 10.0 mi SSW 5.8 mph - N/A   Clear
10:53 AM 82.9 °F 89.4 °F 73.9 °F 74% 30.07 in 10.0 mi South 10.4 mph - N/A   Clear
11:53 AM 82.9 °F 90.2 °F 75.0 °F 77% 30.08 in 10.0 mi West 4.6 mph - N/A   Partly Cloudy
12:09 PM 82.9 °F 90.2 °F 75.0 °F 77% 30.07 in 10.0 mi WSW 5.8 mph - N/A Thunderstorm Clear
12:53 PM 82.9 °F 90.8 °F 75.9 °F 79% 30.06 in 10.0 mi WNW 6.9 mph - N/A Thunderstorm Partly Cloudy
1:35 PM 82.0 °F 86.7 °F 72.0 °F 71% 30.06 in 10.0 mi West 17.3 mph - N/A   Mostly Cloudy
1:53 PM 80.1 °F 83.8 °F 72.0 °F 76% 30.06 in 10.0 mi West 8.1 mph - 0.00 in Rain Light Rain
2:29 PM 81.0 °F 84.9 °F 71.1 °F 72% 30.05 in 10.0 mi West 5.8 mph - 0.00 in Thunderstorm Partly Cloudy
2:53 PM 82.0 °F 87.4 °F 73.0 °F 74% 30.04 in 10.0 mi West 5.8 mph - 0.00 in Rain Light Rain
3:48 PM 84.2 °F 92.3 °F 75.2 °F 74% 30.02 in 10.0 mi West 10.4 mph - 0.00 in   Mostly Cloudy
3:53 PM 84.9 °F 93.3 °F 75.0 °F 72% 30.02 in 10.0 mi West 10.4 mph - 0.00 in   Mostly Cloudy
4:53 PM 86.0 °F 93.0 °F 73.0 °F 65% 30.02 in 10.0 mi WSW 11.5 mph - N/A   Clear
5:53 PM 84.9 °F 92.1 °F 73.9 °F 69% 30.02 in 10.0 mi WSW 6.9 mph - N/A   Partly Cloudy
6:53 PM 84.9 °F 92.1 °F 73.9 °F 69% 30.04 in 10.0 mi WSW 6.9 mph - N/A   Partly Cloudy
7:20 PM 81.0 °F 85.2 °F 72.0 °F 74% 30.05 in 10.0 mi SE 20.7 mph 29.9 mph N/A Thunderstorm Mostly Cloudy
7:31 PM 80.1 °F 84.2 °F 73.0 °F 79% 30.06 in 10.0 mi SE 24.2 mph 27.6 mph N/A Thunderstorm Scattered Clouds
7:39 PM 81.0 °F 85.8 °F 73.0 °F 77% 30.06 in 10.0 mi SE 21.9 mph - N/A   Scattered Clouds
7:53 PM 81.0 °F 85.8 °F 73.0 °F 77% 30.06 in 10.0 mi SE 20.7 mph - N/A   Clear
8:21 PM 80.1 °F 85.1 °F 75.0 °F 85% 30.08 in 10.0 mi East 17.3 mph - N/A   Mostly Cloudy
8:34 PM 80.1 °F 84.5 °F 73.9 °F 81% 30.08 in 10.0 mi East 15.0 mph - N/A   Mostly Cloudy
8:53 PM 79.0 °F - 73.0 °F 82% 30.07 in 10.0 mi ESE 9.2 mph - N/A   Clear
9:53 PM 80.1 °F 83.8 °F 72.0 °F 76% 30.06 in 10.0 mi SE 9.2 mph - N/A   Clear
10:53 PM 78.1 °F - 72.0 °F 81% 30.05 in 10.0 mi South 11.5 mph - N/A   Clear
11:53 PM 78.1 °F - 73.0 °F 84% 30.05 in 10.0 mi South 18.4 mph - N/A   Clear